Flag for Germany Weather past 2 weeks in Munich, Bavaria, Germany

Now
54 °F

Partly sunny.


Feels Like: 52 °F
Forecast: 51 / 63 °F
Wind: 6 mph from West

Location: Oberpfaffenhofen

Current Time: Sep 2, 2014 at 9:27:17 AM

Latest Report: Sep 2, 2014 at 8:50 AM


Visibility: 5 mi

Pressure: 30.15 "Hg

Humidity: 88%

Dew point: 50 °F

Location of MunichLocation

Historic Weather in Munich — Graph

°F

Munich temperature yesterday

Maximum temperature yesterday: 55 °F (at 12:20 PM)
Minimum temperature yesterday: 50 °F (at 6:50 AM)
Average temperature yesterday: 53 °F

Past Weeks' High & Low Weather Summary

 TemperatureHumidityPressure
High72 °F (Aug 28, 3:50 PM)100% (Aug 28, 7:20 AM)30.15 "Hg (Aug 28, 7:20 AM)
Low43 °F (Aug 25, 6:50 AM)40% (Aug 21, 6:20 PM)29.77 "Hg (Aug 26, 6:50 AM)
Average60 °F70%30.02 "Hg
* Reported Aug 18 8:20 AM — Sep 2 8:20 AM, Munich, Weather by CustomWeather, © 2014

Note: Actual official high and low records may vary slightly from our data, if they occured in-between our weather recording intervals... More about our weather records

Advertising

Munich weather history for previous 24 hours

 ConditionsComfort  
Time TempWeatherWind HumidityBarometerVisibility
8:20 AM
Sep 2
52 °FPartly sunny.5 mph94%30.15 "Hg5 mi
7:50 AM52 °FPartly sunny.5 mph94%30.15 "Hg5 mi
7:20 AM52 °FPassing clouds.5 mph94%30.15 "Hg5 mi
6:50 AM52 °FPassing clouds.5 mph88%30.15 "Hg4 mi
7:50 PM
Sep 1
54 °FBroken clouds.3 mph88%30.15 "HgN/A
7:20 PM55 °FPartly sunny.3 mph77%30.15 "HgN/A
6:50 PM55 °FPartly sunny.3 mph77%30.15 "HgN/A
6:20 PM55 °FPartly sunny.5 mph77%30.15 "HgN/A
5:50 PM55 °FPartly sunny.5 mph77%30.15 "HgN/A
5:20 PM55 °FBroken clouds.7 mph77%30.15 "HgN/A
4:50 PM54 °FBroken clouds.8 mph77%30.15 "HgN/A
4:20 PM55 °FBroken clouds.9 mph77%30.15 "HgN/A
3:50 PM55 °FPartly sunny.10 mph77%30.12 "HgN/A
3:20 PM55 °FPartly sunny.12 mph72%30.12 "HgN/A
2:50 PM55 °FPartly sunny.6 mph77%30.12 "HgN/A
2:20 PM54 °FPartly sunny.6 mph82%30.12 "HgN/A
1:50 PM54 °FBroken clouds.6 mph82%30.12 "HgN/A
1:20 PM54 °FBroken clouds.13 mph77%30.12 "HgN/A
12:50 PM54 °FBroken clouds.6 mph82%30.12 "HgN/A
12:20 PM55 °FBroken clouds.6 mph72%30.12 "HgN/A
11:50 AM54 °FBroken clouds.7 mph77%30.12 "HgN/A
11:20 AM54 °FPartly sunny.6 mph82%30.12 "HgN/A
10:50 AM52 °FPartly sunny.7 mph88%30.09 "HgN/A
10:20 AM52 °FPartly sunny.8 mph88%30.09 "HgN/A
9:50 AM52 °FPartly sunny.9 mph88%30.09 "HgN/A
9:20 AM52 °FPartly sunny.7 mph88%30.09 "HgN/A
Weather by CustomWeather, © 2014

See weather overviewHow to use our weather pages